AirNav   Bose Proflight Series 2 Wireless Aviation Headset
 
 877 users online  

KHEY Hanchey Army Heliport (Fort Rucker)
Fort Rucker/Ozark, Alabama, USA

GOING TO FORT RUCKER/OZARK?


FAA INFORMATION EFFECTIVE 07 NOVEMBER 2019

Location

FAA Identifier: HEY
Lat/Long: 31-21-20.6430N 085-39-06.7070W
31-21.344050N 085-39.111783W
31.3557342,-85.6518631
(estimated)
Elevation: 317.9 ft. / 96.9 m (surveyed)
Variation: 03W (2010)
From city: 4 miles SE of FORT RUCKER OZARK, AL
Time zone: UTC -6 (UTC -5 during Daylight Saving Time)
Zip code: 36362

Heliport Operations

Heliport use: Private use. Permission required prior to landing
Control tower: yes
ARTCC: JACKSONVILLE CENTER
FSS: ANNISTON FLIGHT SERVICE STATION
NOTAMs facility: OZR (NOTAM-D service available)
Attendance: MON-FRI 0600-0030, EXCP HOL
Pattern altitude: 900.9 ft. MSL
TFC PAT ALT 900' MSL.
Segmented circle: no
Lights: SS-SR
Beacon: white (unlighted land airport)
Operates sunset to sunrise.

Heliport Communications

ATIS: 141.375
HANCHEY GROUND: 142.55 225.575 [OPR 1145-0645Z++ OR TIL MISSION CMPLT, MON-FRI EXC HOL, OT CTC CAIRNS TWR.]
HANCHEY TOWER: 140.5 387.85 [OPR 1145-0645Z++ OR TIL MISSION CMPLT, MON-FRI EXC HOL, OT CTC CAIRNS TWR.]
CAIRNS APPROACH: 121.1
CAIRNS DEPARTURE: 121.1
CLEARANCE DELIVERY: 118.075
EMERG: 121.5 243.0
RADAR: 134.1 135.4 229.6 242.6
WX ASOS at DHN (11 nm E): PHONE 334-983-5999
WX AWOS-3PT at EDN (13 nm W): 118.9 (334-347-3524)
  • APCH/DEP SVC PRVDD BY JACKSONVILLE ARTCC ON FREQS 134.3/353.5 (DOTHAN RCAG) WHEN CAIRNS APCH/DEP CLSD.

Nearby radio navigation aids

VOR radial/distance  VOR name  Freq  Var
HEYr181/(1.1)HANCHEY VOR110.6003W
OZRr039/6.5CAIRNS VOR/DME111.2003W
RRSr289/12.1WIREGRASS VORTAC111.6002E
EDNr078/(13.3)ENTERPRISE VOR116.6003W

 
NDB name  Hdg/Dist  Freq  Var  ID
HANCHEY178/1.222103WHYE .... -.-- .
LOWE097/4.726903WLOR .-.. --- .-.
RUCKR050/11.521203WOZ --- --..
BOLL WEEVIL090/16.935203WBVG -... ...- --.
SOYYA325/36.432902WSMY ... -- -.--
BLOOD145/36.836504WTOI - --- ..
JUDD087/38.026402WJUY .--- ..- -.--

Heliport Services

Runway Information

Runway 17/35

Dimensions: 476 x 50 ft. / 145 x 15 m
Surface: asphalt, in fair condition
Runway edge lights: medium intensity
RUNWAY 17  RUNWAY 35
Latitude: 31-21.383267N31-21.304817N
Longitude: 085-39.114167W085-39.109383W
Elevation: 317.9 ft.317.9 ft.
Traffic pattern: leftleft
Runway heading: 180 magnetic, 177 true000 magnetic, 357 true
Markings: precision, in fair conditionprecision, in fair condition
Touchdown point: yes, no lightsyes, no lights

Heliport Ownership and Management from official FAA records

Ownership: U.S. Army
Owner: US ARMY HANCHEY ARMY HELIPAD
9325 GUNSTON ROAD
FT BELVOIR, VA 22060
Manager: PAUL MEISSNER
Phone 334-255-2680

Additional Remarks

FUEL: 100, J8
LGT: HI INTS ROT BCN, 60/80 WHITE FLASHES PER MIN.
OPR 1145-0645Z++OR UNTIL MISSION COMPLETE, MON-FRI EXC HOL, OT CTC CAIRNS TWR. SEE FLIP AP/1, FLT HAZ, FORT RUCKER.
RSTD: NO TRAN ACFT.
CAUTION: INTS STU TRNG.
(RWY LENGTH SOURCE DATE, RWY 17/35) HELICOPTER RWY

Instrument Procedures

NOTE: All procedures below are presented as PDF files. If you need a reader for these files, you should download the free Adobe Reader.

NOT FOR NAVIGATION. Please procure official charts for flight.
FAA instrument procedures published for use from 07 November 2019 at 0901Z to 05 December 2019 at 0900Z.

 
IAPs - Instrument Approach Procedures
COPTER RNAV (GPS) RWY 17   download (85KB)
COPTER VOR RWY 17   download (82KB)
COPTER NDB RWY 17   download (81KB)
NOTE: Special Take-Off Minimums/Departure Procedures apply   download (189KB)

Other nearby airports with instrument procedures:

71J - Ozark-Blackwell Field Airport (5 nm N)
KLOR - Lowe Army Heliport (Fort Rucker) (5 nm W)
KOZR - Cairns Army Airfield (Fort Rucker) (6 nm SW)
KDHN - Dothan Regional Airport (11 nm E)
KEDN - Enterprise Municipal Airport (13 nm W)
0J6 - Headland Municipal Airport (17 nm E)
 
Loc | Ops | Rwys | IFR | FBO | Links
Com | Nav | Svcs | Stats | Notes
Area around KHEY (Hanchey Army Heliport (Fort Rucker))
 
Road maps at: MapQuest Bing Google
 
Aerial photo
WARNING: Photo may not be current or correct
Aerial photo of KHEY (Hanchey Army Heliport (Fort Rucker))
Do you have a better or more recent aerial photo of Hanchey Army Heliport (Fort Rucker) that you would like to share? If so, please send us your photo.

 
Sectional chart

 
Airport distance calculator
Flying to Hanchey Army Heliport (Fort Rucker)? Find the distance to fly.

From to KHEY

Sunrise and sunset
Times for 14-Nov-2019
 Local
(UTC-6)
 Zulu
(UTC)
Morning civil twilight05:4511:45
Sunrise06:1012:10
Sunset16:4422:44
Evening civil twilight17:1023:10

Current date and time
Zulu (UTC)  15-Nov-2019 00:23:18
Local (UTC-6)  14-Nov-2019 18:23:18
 
METAR
KHEY 142358Z AUTO 36006KT 4SM -RA BR OVC005 07/06 A3019 RMK AO2 SLP227 P0005 60007 T00660062 10093 20066 52008
KLOR 
5nm W 
142358Z AUTO 36005KT 3SM -RA BR OVC005 06/06 A3020 RMK AO2 SLP211 P0006 60010 52007
KOZR 
5nm SW 
142356Z 35008KT 3SM -RA BR OVC004 07/06 A3020 RMK AO2A SLP230 P0004 60006 T00670058 10099 20066 52008
KSXS 
10nm W 
142358Z AUTO 09008KT 5SM -RA BR OVC004 06/06 A3020 RMK AO2 SLP231 P0010 60019 T00640062 10092 20062 52008
KDHN 
11nm E 
150000Z 35007KT 3SM -RA BR OVC005 07/06 A3022 RMK AO2 P0001 T00720061
KEDN 
13nm W 
142355Z AUTO 36005KT 7SM DZ BKN007 BKN016 OVC036 06/06 A3021 RMK AO2 P0006 60012 T00600060 10087 20058
TAF
KOZR 
5nm SW 
150000Z 1500/1606 36012KT 4800 -RA OVC005 QNH3012INS BECMG 1511/1512 35012KT 9000 -DZ OVC006 QNH3009INS BECMG 1518/1519 34009KT 8000 -RA OVC006 QNH3010INS BECMG 1602/1603 34006KT 9999 NSW SCT010 BKN065 QNH3012INS TX12/1518Z TN06/1507Z
KDHN 
11nm E 
141729Z 1418/1518 03007KT P6SM -RA OVC015 FM150300 35009KT 5SM RA OVC007 FM151200 35011KT 6SM -RA OVC015
NOTAMs
Click for the latest NOTAMs
NOTAMs are issued by the DoD/FAA and will open in a separate window not controlled by AirNav.

 

 
 

Would you like to see your business listed on this page?

 If your business provides an interesting product or service to pilots, flight crews, aircraft, or users of the Hanchey Army Heliport (Fort Rucker), you should consider listing it here.  To start the listing process, click on the button below
 
Add a business
 

Other Pages about Hanchey Army Heliport (Fort Rucker)

Update a link
 
Copyright © AirNav, LLC. All rights reserved. Privacy Policy  Contact